GW7376 Weather Reports


Display with metric or nautical units.
time (UTC)temp
F
wind
direction
speed
MPH
gust
MPH
rain 1hr
in
rain 24hr
in
rain mn
in
humidity
%
barometer
mb
20260506073435 76 122 0.0 2.0 0.00 0.00 0.00 87 994.3
20260506072838 76 225 2.0 3.0 0.00 0.00 0.00 87 994.4
20260506072337 76 50 0.0 0.0 0.00 0.00 0.00 87 994.5
20260506071738 76 322 0.0 3.0 0.00 0.00 0.00 87 994.1
20260506071152 76 147 0.0 3.0 0.00 0.00 0.00 87 994.3
20260506051139 76 144 0.0 2.0 0.00 0.00 0.00 85 994.8
20260506044628 76 192 0.0 0.0 0.00 0.00 0.00 85 995.1
20260506044027 76 282 0.0 1.0 0.00 0.00 0.00 85 995.0
20260506043526 76 242 0.0 1.0 0.00 0.00 0.00 85 994.9
20260506042927 76 333 0.0 0.0 0.00 0.00 0.00 85 994.8
20260506042327 76 315 0.0 1.0 0.00 0.00 0.00 85 994.6
20260506041729 76 230 0.0 0.0 0.00 0.00 0.00 85 994.6
20260506041228 76 195 0.0 0.0 0.00 0.00 0.00 85 994.7
20260506040727 76 193 0.0 0.0 0.00 0.00 0.00 84 994.5
20260506040140 76 255 0.0 1.0 0.00 0.00 0.00 84 994.5
20260506035628 76 269 0.0 0.0 0.00 0.00 0.00 84 994.3
20260506035029 76 331 0.0 2.0 0.00 0.00 0.00 83 994.1
20260506034526 76 44 0.0 1.0 0.00 0.00 0.00 83 994.1
20260506033938 76 217 0.0 1.0 0.00 0.00 0.00 83 994.1
20260506033431 76 333 0.0 0.0 0.00 0.00 0.00 83 994.0
20260506032927 76 113 0.0 0.0 0.00 0.00 0.00 83 994.0
20260506032429 76 101 2.0 2.0 0.00 0.00 0.00 83 994.1
20260506031926 76 228 1.0 1.0 0.00 0.00 0.00 83 993.9
20260506031338 77 224 0.0 0.0 0.00 0.00 0.00 83 993.9
20260506030828 77 190 0.0 0.0 0.00 0.00 0.00 82 994.0
20260506030326 77 104 0.0 0.0 0.00 0.00 0.00 82 993.8
20260506025827 77 117 0.0 1.0 0.00 0.00 0.00 82 993.9
20260506025326 77 135 0.0 0.0 0.00 0.00 0.00 82 993.8
20260506024727 77 269 0.0 2.0 0.00 0.00 0.00 81 993.6
20260506024126 77 135 0.0 2.0 0.00 0.00 0.00 81 993.6
20260506023527 78 104 0.0 0.0 0.00 0.00 0.00 80 993.5
20260506022926 78 154 0.0 2.0 0.00 0.00 0.00 80 993.6
20260506022428 78 37 0.0 1.0 0.00 0.00 0.00 80 993.5
20260506021829 78 18 1.0 2.0 0.00 0.00 0.00 79 993.4
20260506021326 78 244 1.0 1.0 0.00 0.00 0.00 79 993.3
20260506020727 78 4 0.0 2.0 0.00 0.00 0.00 78 993.3
20260506020226 78 185 0.0 2.0 0.00 0.00 0.00 78 992.9
20260506015626 78 198 1.0 1.0 0.00 0.00 0.00 79 993.1
20260506015127 78 193 0.0 1.0 0.00 0.00 0.00 78 993.0
20260506014626 78 326 0.0 2.0 0.00 0.00 0.00 79 993.0
20260506014037 78 345 0.0 2.0 0.00 0.00 0.00 78 992.9
20260506013527 78 15 0.0 1.0 0.00 0.00 0.00 78 992.7
20260506012927 79 218 0.0 1.0 0.00 0.00 0.00 78 992.5
20260506012328 79 55 0.0 1.0 0.00 0.00 0.00 78 992.7
20260506011826 79 156 0.0 2.0 0.00 0.00 0.00 78 992.6
20260506011327 79 212 0.0 2.0 0.00 0.00 0.00 78 992.5
20260506010837 79 237 0.0 1.0 0.00 0.00 0.00 77 992.5
20260506010326 79 192 0.0 2.0 0.00 0.00 0.00 77 992.4
20260506005825 79 204 1.0 1.0 0.00 0.00 0.00 77 992.3
20260506005327 80 44 0.0 2.0 0.00 0.00 0.00 77 992.3
20260506004826 80 32 0.0 2.0 0.00 0.00 0.00 76 992.3
20260506004228 80 224 0.0 2.0 0.00 0.00 0.00 76 992.1
20260506003725 80 234 1.0 1.0 0.00 0.00 0.00 76 992.0
20260506003127 80 287 0.0 2.0 0.00 0.00 0.00 76 992.2
20260506002526 80 230 0.0 2.0 0.00 0.00 0.00 76 992.2
20260506002029 80 224 0.0 1.0 0.00 0.00 0.00 75 992.0
20260506001536 80 230 0.0 1.0 0.00 0.00 0.00 75 992.2
20260506000939 80 357 0.0 2.0 0.00 0.00 0.00 75 992.0
20260506000427 81 27 0.0 1.0 0.00 0.00 0.00 74 992.2
20260505235926 81 266 0.0 1.0 0.00 0.00 0.00 74 992.2
20260505235337 81 221 0.0 1.0 0.00 0.00 0.00 73 992.0
20260505234827 81 315 0.0 2.0 0.00 0.00 0.00 73 992.0
20260505234326 81 352 0.0 2.0 0.00 0.00 0.00 73 992.2
20260505233726 81 324 0.0 1.0 0.00 0.00 0.00 73 992.0
20260505233226 81 315 0.0 0.0 0.00 0.00 0.00 72 992.0
20260505232627 81 315 0.0 2.0 0.00 0.00 0.00 72 992.1
20260505232138 82 180 0.0 2.0 0.00 0.00 0.00 71 992.2
20260505231627 82 202 1.0 3.0 0.00 0.00 0.00 71 992.2
20260505231030 82 44 0.0 2.0 0.00 0.00 0.00 71 992.2
20260505230428 82 311 1.0 2.0 0.00 0.00 0.00 73 992.2
20260505225826 82 294 0.0 2.0 0.00 0.00 0.00 72 992.1
20260505225326 82 67 0.0 1.0 0.00 0.00 0.00 72 992.2
20260505224729 82 217 0.0 2.0 0.00 0.00 0.00 72 992.2
20260505204727 84 68 4.0 5.0 0.00 0.00 0.00 67 992.9
20260505204137 84 233 3.0 3.0 0.00 0.00 0.00 69 992.9
20260505203627 83 38 4.0 4.0 0.00 0.00 0.00 69 993.0
20260505203136 83 223 3.0 4.0 0.00 0.00 0.00 69 993.4
20260505202528 84 64 0.0 4.0 0.00 0.00 0.00 69 993.5
20260505202026 84 275 0.0 3.0 0.00 0.00 0.00 71 993.3
20260505201428 83 202 2.0 3.0 0.00 0.00 0.00 70 993.7
20260505200929 83 60 0.0 4.0 0.00 0.00 0.00 70 993.5
20260505200331 83 347 2.0 4.0 0.00 0.00 0.00 72 993.4
20260505195826 82 320 0.0 4.0 0.00 0.00 0.00 72 993.6
20260505195339 82 278 0.0 4.0 0.00 0.00 0.00 72 993.5
20260505194729 82 257 2.0 4.0 0.00 0.00 0.00 72 993.6
20260505194231 81 208 4.0 5.0 0.00 0.00 0.00 73 993.7
20260505193627 81 162 1.0 3.0 0.00 0.00 0.00 75 993.9
20260505193029 81 193 2.0 2.0 0.00 0.00 0.00 74 994.1
20260505192429 81 208 0.0 3.0 0.00 0.00 0.00 74 994.2
20260505191836 81 217 1.0 3.0 0.00 0.00 0.00 73 994.0
20260505191226 81 189 2.0 2.0 0.00 0.00 0.00 73 993.8
20260505190736 81 159 1.0 4.0 0.00 0.00 0.00 72 994.1
20260505190026 82 212 0.0 4.0 0.00 0.00 0.00 73 993.6
20260505185529 81 311 0.0 4.0 0.00 0.00 0.00 74 994.0
20260505184930 80 257 2.0 3.0 0.00 0.00 0.00 74 994.1
20260505184330 81 197 0.0 2.0 0.00 0.00 0.00 74 994.2
20260505183727 81 276 1.0 4.0 0.00 0.00 0.00 73 994.1
20260505183143 81 208 1.0 4.0 0.00 0.00 0.00 75 994.2
20260505182637 80 220 1.0 3.0 0.00 0.00 0.00 74 994.2
20260505182027 80 335 0.0 4.0 0.00 0.00 0.00 75 994.5
20260505181526 80 224 1.0 4.0 0.00 0.00 0.00 75 994.4
20260505180928 80 201 1.0 4.0 0.00 0.00 0.00 76 994.4
20260505180332 80 240 2.0 4.0 0.00 0.00 0.00 75 994.6
20260505175826 80 224 4.0 5.0 0.00 0.00 0.00 77 994.4
20260505175329 79 302 1.0 4.0 0.00 0.00 0.00 77 994.6
20260505174727 79 323 1.0 5.0 0.00 0.00 0.00 76 994.8
20260505174127 79 307 0.0 4.0 0.00 0.00 0.00 77 994.6
20260505173629 79 347 0.0 4.0 0.00 0.00 0.00 77 994.5
20260505173126 79 280 2.0 2.0 0.00 0.00 0.00 78 994.7
20260505172538 78 84 1.0 4.0 0.00 0.00 0.00 78 994.9
20260505171928 79 288 2.0 5.0 0.00 0.00 0.00 79 994.8
20260505171428 78 267 2.0 5.0 0.00 0.00 0.00 78 994.8
20260505170828 78 138 0.0 4.0 0.00 0.00 0.00 79 994.8
20260505170227 78 252 2.0 4.0 0.00 0.00 0.00 79 994.8
20260505165426 78 299 3.0 3.0 0.00 0.00 0.00 80 994.8
20260505164927 77 307 0.0 4.0 0.00 0.00 0.00 81 994.9
20260505164329 77 238 1.0 3.0 0.00 0.00 0.00 81 994.9
20260505163837 77 323 4.0 6.0 0.00 0.00 0.00 81 994.9
20260505163326 77 220 2.0 3.0 0.00 0.00 0.00 81 994.9
20260505162727 77 104 2.0 4.0 0.00 0.00 0.00 82 994.9
20260505162227 77 202 4.0 5.0 0.00 0.00 0.00 82 995.1
20260505161627 76 34 1.0 2.0 0.00 0.00 0.00 82 995.1
20260505161027 76 162 2.0 3.0 0.00 0.00 0.00 83 995.1
20260505160426 76 248 1.0 3.0 0.00 0.00 0.00 83 995.0
20260505153028 75 232 2.0 2.0 0.00 0.00 0.00 85 994.8
20260505152427 75 235 2.0 3.0 0.00 0.00 0.00 85 994.8
20260505151929 75 198 1.0 2.0 0.00 0.00 0.00 85 994.8
20260505151427 75 348 0.0 3.0 0.00 0.00 0.00 85 994.6
20260505150826 74 272 1.0 3.0 0.00 0.00 0.00 84 994.8
20260505150326 74 25 0.0 2.0 0.00 0.00 0.00 85 994.7
20260505140138 73 238 2.0 3.0 0.00 0.00 0.00 87 994.5
20260505130227 72 238 1.0 2.0 0.00 0.00 0.00 88 994.7
20260505125029 72 231 1.0 3.0 0.00 0.00 0.00 89 994.8
20260505124527 72 281 0.0 3.0 0.00 0.00 0.00 88 994.6
20260505123926 71 290 0.0 2.0 0.00 0.00 0.00 88 994.4
20260505123426 71 336 1.0 4.0 0.00 0.00 0.00 88 994.3
20260505122842 71 123 0.0 4.0 0.00 0.00 0.00 88 994.6
20260505122351 71 12 1.0 3.0 0.00 0.00 0.00 88 994.4
20260505121745 71 77 0.0 2.0 0.00 0.00 0.00 88 994.3
20260505121142 71 240 0.0 2.0 0.00 0.00 0.00 88 993.9
20260505120643 71 326 1.0 2.0 0.00 0.00 0.00 88 994.0
20260505120151 71 53 2.0 3.0 0.00 0.00 0.00 88 994.3
20260505115541 71 193 2.0 3.0 0.00 0.00 0.00 88 994.1
20260505115041 71 297 1.0 4.0 0.00 0.00 0.00 88 994.3
20260505114451 71 166 1.0 4.0 0.00 0.00 0.00 88 994.2
20260505113851 71 165 1.0 4.0 0.00 0.00 0.00 88 994.2
20260505113251 71 310 1.0 3.0 0.00 0.00 0.00 88 994.1
20260505112742 71 241 0.0 3.0 0.00 0.00 0.00 88 994.4
20260505112142 71 89 0.0 3.0 0.00 0.00 0.00 88 994.6
20260505111642 71 235 2.0 4.0 0.00 0.00 0.00 88 994.2
20260505111144 71 211 1.0 4.0 0.00 0.00 0.00 88 993.9
20260505110543 71 178 2.0 4.0 0.00 0.00 0.00 88 993.9
20260505101641 71 171 2.0 4.0 0.00 0.00 0.00 88 994.2
20260505101051 70 140 0.0 4.0 0.00 0.00 0.00 88 994.2
20260505100540 70 255 3.0 3.0 0.00 0.00 0.00 88 994.1
20260505100041 70 202 1.0 3.0 0.00 0.00 0.00 88 994.1
20260505095441 70 196 2.0 3.0 0.00 0.00 0.00 88 994.2
20260505094940 70 337 2.0 4.0 0.00 0.00 0.00 88 994.5
20260505094341 70 186 2.0 2.0 0.00 0.00 0.00 88 994.1
20260505093841 70 117 2.0 3.0 0.00 0.00 0.00 87 994.4
20260505093241 70 48 4.0 4.0 0.00 0.00 0.00 88 994.3
20260505092652 70 40 1.0 3.0 0.00 0.00 0.00 87 994.5
20260505092041 70 333 2.0 3.0 0.00 0.00 0.00 87 994.6
20260505091441 70 91 1.0 3.0 0.00 0.00 0.00 87 994.6
20260505090941 70 110 2.0 4.0 0.00 0.00 0.00 87 994.8
20260505090343 70 236 2.0 3.0 0.00 0.00 0.00 87 994.5
20260505085843 70 306 1.0 3.0 0.00 0.00 0.00 86 994.6
20260505085252 70 52 1.0 3.0 0.00 0.00 0.00 86 994.6
20260505084742 70 258 3.0 4.0 0.00 0.00 0.00 86 994.9
20260505084142 70 207 0.0 2.0 0.00 0.00 0.00 86 994.7
20260505083544 70 344 1.0 4.0 0.00 0.00 0.00 86 994.7
20260505083041 70 81 2.0 3.0 0.00 0.00 0.00 86 995.0
20260505082542 70 180 0.0 3.0 0.00 0.00 0.00 86 995.0
20260505081942 70 224 0.0 2.0 0.00 0.00 0.00 85 995.0
20260505081343 70 332 0.0 3.0 0.00 0.00 0.00 85 995.1
20260505080842 70 80 2.0 2.0 0.00 0.00 0.00 85 994.9
20260505080242 70 210 1.0 2.0 0.00 0.00 0.00 85 995.1
20260505075742 70 209 1.0 1.0 0.00 0.00 0.00 85 995.1
20260505075144 70 186 1.0 1.0 0.00 0.00 0.00 84 995.1
20260505074641 70 185 0.0 2.0 0.00 0.00 0.00 84 995.0